Location: Borojevi?i
(45.0486°N, 16.2297°E)
Time: 05:01:36
(UTC+00:00)

Sich 1 - Pass Details

Date: 08 August 2020
Orbit: 593 x 626 km, 82.5° (Epoch: 23 September)

Event Time Altitude Azimuth Distance (km) Brightness Sun altitude
Exits shadow 19:57:33 - 201° (SSW) 2,835 6.2 -16.3°
Reaches altitude 10° 19:59:41 10° 206° (SSW) 1,992 5.5 -16.6°
Maximum altitude 20:03:59 50° 282° (WNW) 801 3.9 -17.1°
Drops below altitude 10° 20:08:20 10° 359° (N) 2,012 6.4 -17.7°
Sets 20:10:38 0° 4° (N) 2,923 7.2 -17.9°
